[ ตารางข้อมูล ] [ Min-Max ] [ วันนี้4 ] [ วันนี้2 ] [ เทียบ3วัน A ] [ เทียบ4วัน B ]   

วันนี้2   [ ◀ ช่วงเก่ากว่า ] [ ช่วงที่ 195 ] [ ช่วงใหม่กว่า ▶ ] [ ล่าสุด ]    [ 3 ชั่วโมง ] [ 6 ชั่วโมง ] [ 12 ชั่วโมง ] [ 24 ชั่วโมง ]   วันนี้2

อุณภูมิตู้ Knockdown4529  ราย 3 ชั่วโมง  ที่วัดได้ ในช่วงวันเวลา 10/04/2026 (02:17) ถึง 10/04/2026 (05:17) 
ความชื้นในตู้ Knockdown4529  ราย 3 ชั่วโมง  ที่วัดได้ ในช่วงวันเวลา 10/04/2026 (02:17) ถึง 10/04/2026 (05:17) 

 
DS18B20SHTC3 
IDDate d/m/Y & Timedata1
สูง
data2
ต่ำ
data3
นอก
temp
pcb
hum
pcb
Time
 10453  10/04/2026 05:16:06  26.6  26.7  25.1  26.5  70.6  05:16 
 10452  10/04/2026 05:11:24  26.6  26.7  25.1  26.5  70.7  05:11 
 10451  10/04/2026 05:06:43  26.6  26.7  25.2  26.6  70.6  05:06 
 10450  10/04/2026 05:02:00  26.6  26.8  25.4  26.6  70.5  05:02 
 10449  10/04/2026 04:57:18  26.6  26.8  25.2  26.5  70.6  04:57 
 10448  10/04/2026 04:52:35  26.6  26.8  25.1  26.6  70.5  04:52 
 10447  10/04/2026 04:47:51  26.6  26.8  25.2  26.6  70.5  04:47 
 10446  10/04/2026 04:43:10  26.7  26.8  25.2  26.6  70.6  04:43 
 10445  10/04/2026 04:38:25  26.7  26.8  25.2  26.6  70.5  04:38 
 10444  10/04/2026 04:33:43  26.7  26.8  25.4  26.7  70.5  04:33 
 10443  10/04/2026 04:29:01  26.7  26.8  25.3  26.6  70.6  04:29 
 10442  10/04/2026 04:24:19  26.7  26.8  25.3  26.6  70.6  04:24 
 10441  10/04/2026 04:19:37  26.8  26.8  25.3  26.7  70.6  04:19 
 10440  10/04/2026 04:14:55  26.8  26.9  25.4  26.7  70.6  04:14 
 10439  10/04/2026 04:10:13  26.8  26.9  25.3  26.6  70.6  04:10 
 10438  10/04/2026 04:05:31  26.8  26.9  25.3  26.6  70.5  04:05 
 10437  10/04/2026 04:00:51  26.8  26.9  25.4  26.8  70.7  04:00 
 10436  10/04/2026 03:56:07  26.8  26.9  25.2  26.8  70.7  03:56 
 10435  10/04/2026 03:51:25  26.8  26.9  25.4  26.7  70.6  03:51 
 10434  10/04/2026 03:46:43  26.8  26.9  25.2  26.7  70.7  03:46 
 10433  10/04/2026 03:41:59  26.8  26.9  25.3  26.8  70.6  03:41 
 10432  10/04/2026 03:37:18  26.9  26.9  25.1  26.9  70.8  03:37 
 10431  10/04/2026 03:32:35  26.9  26.9  25.3  26.9  70.7  03:32 
 10430  10/04/2026 03:27:54  26.9  27.0  25.4  26.7  70.6  03:27 

Data every 5 minute.


ใช้เวลาประมวลผล 0.00206 วินาที